OH2MUI Weather Reports


Display with metric or nautical units.
time (UTC)temp
F
wind
direction
speed
MPH
gust
MPH
rain 1hr
in
rain 24hr
in
rain mn
in
humidity
%
barometer
mb
20260508084322 56 334 1.0 6.0 0.00 0.00 0.00 45 1028.0
20260508082439 55 312 1.0 4.0 0.00 0.00 0.00 44 1028.0
20260508080519 55 330 1.0 4.0 0.00 0.00 0.00 49 1028.0
20260508074544 53 25 1.0 3.0 0.00 0.00 0.00 49 1027.9
20260508072649 52 331 1.0 5.0 0.00 0.00 0.00 54 1027.7
20260508070729 50 346 1.0 3.0 0.00 0.00 0.00 56 1027.8
20260508064903 50 315 1.0 3.0 0.00 0.00 0.00 58 1027.8
20260508063009 48 326 1.0 3.0 0.00 0.00 0.00 62 1027.6
20260508061043 45 339 1.0 6.0 0.00 0.00 0.00 68 1027.4
20260508061040 45 339 1.0 6.0 0.00 0.00 0.00 68 1027.4
20260508061037 45 339 1.0 6.0 0.00 0.00 0.00 68 1027.4
20260508055329 42 45 0.0 2.0 0.00 0.00 0.00 74 1027.2
20260508053704 39 49 0.0 2.0 0.00 0.00 0.00 80 1026.9
20260508051731 37 14 0.0 2.0 0.00 0.00 0.00 81 1026.8
20260508045836 37 90 0.0 3.0 0.00 0.00 0.00 81 1026.8
20260508042049 34 225 0.0 2.0 0.00 0.00 0.00 83 1026.5
20260508040339 34 90 0.0 1.0 0.00 0.00 0.00 83 1026.2
20260508034514 33 90 0.0 2.0 0.00 0.00 0.00 84 1026.0
20260508032704 33 135 0.0 1.0 0.00 0.00 0.00 84 1025.9
20260508030829 33 130 0.0 2.0 0.00 0.00 0.00 85 1025.7
20260508024903 33 90 0.0 2.0 0.00 0.00 0.00 86 1025.5
20260508023304 33 90 0.0 2.0 0.00 0.00 0.00 82 1025.2
20260508023259 33 90 0.0 2.0 0.00 0.00 0.00 82 1025.2
20260508021529 33 90 0.0 2.0 0.00 0.00 0.00 82 1025.0
20260508015553 34 90 0.0 2.0 0.00 0.00 0.00 80 1024.8
20260508013748 34 90 0.0 2.0 0.00 0.00 0.00 79 1024.7
20260508012044 35 90 0.0 2.0 0.00 0.00 0.00 76 1024.4
20260508010444 35 90 0.0 2.0 0.00 0.00 0.00 76 1024.3
20260508004549 35 90 0.0 1.0 0.00 0.00 0.00 77 1024.1
20260508002815 0 90 0.0 2.0 0.00 0.00 0.00 76 1023.9
20260508002809 35 90 0.0 2.0 0.00 0.00 0.00 76 1023.9
20260508001204 35 101 1.0 2.0 0.00 0.00 0.00 76 1023.6
20260507235334 36 90 0.0 2.0 0.00 0.00 0.00 74 1023.4
20260507233359 38 90 0.0 2.0 0.00 0.00 0.00 71 1023.1
20260507231629 39 56 0.0 1.0 0.00 0.00 0.00 68 1023.0
20260507225804 40 90 0.0 2.0 0.00 0.00 0.00 67 1022.7
20260507223905 40 90 0.0 2.0 0.00 0.00 0.00 65 1022.4
20260507221909 41 56 0.0 1.0 0.00 0.00 0.00 64 1022.2
20260507220114 41 36 0.0 1.0 0.00 0.00 0.00 63 1022.1
20260507214449 41 90 0.0 1.0 0.00 0.00 0.00 62 1021.7
20260507212819 42 90 0.0 2.0 0.00 0.00 0.00 59 1021.5
20260507211009 42 90 1.0 3.0 0.00 0.00 0.00 58 1021.3
20260507205048 43 90 1.0 2.0 0.00 0.00 0.00 54 1021.1
20260507203159 44 90 1.0 2.0 0.00 0.00 0.00 52 1020.8
20260507201304 46 90 1.0 2.0 0.00 0.00 0.00 49 1020.6
20260507201259 46 90 1.0 2.0 0.00 0.00 0.00 49 1020.6
20260507195624 47 54 0.0 3.0 0.00 0.00 0.00 47 1020.1
20260507193749 48 49 0.0 2.0 0.00 0.00 0.00 45 1019.8
20260507191859 49 29 0.0 2.0 0.00 0.00 0.00 44 1019.5
20260507185929 51 354 0.0 3.0 0.00 0.00 0.00 44 1019.3
20260507184124 51 29 0.0 2.0 0.00 0.00 0.00 43 1019.2
20260507182454 53 23 1.0 5.0 0.00 0.00 0.00 40 1018.9
20260507182449 53 23 1.0 5.0 0.00 0.00 0.00 40 1018.9
20260507180729 55 48 1.0 3.0 0.00 0.00 0.00 37 1018.3
20260507174929 57 18 1.0 3.0 0.00 0.00 0.00 36 1018.0
20260507173329 58 356 1.0 4.0 0.00 0.00 0.00 36 1017.8
20260507171354 59 347 1.0 4.0 0.00 0.00 0.00 33 1017.4
20260507165524 59 90 0.0 2.0 0.00 0.00 0.00 33 1017.3
20260507163744 58 90 0.0 2.0 0.00 0.00 0.00 32 1017.2
20260507162048 58 9 0.0 2.0 0.00 0.00 0.00 33 1017.1
20260507160449 58 294 2.0 10.0 0.00 0.00 0.00 33 1017.0
20260507154844 57 299 1.0 5.0 0.00 0.00 0.00 31 1016.9
20260507153049 57 270 1.0 8.0 0.00 0.00 0.00 29 1016.9
20260507151249 57 270 2.0 4.0 0.00 0.00 0.00 33 1016.9
20260507145549 57 279 2.0 5.0 0.00 0.00 0.00 32 1016.9
20260507143859 57 299 1.0 6.0 0.00 0.00 0.00 33 1016.8
20260507143854 57 299 1.0 6.0 0.00 0.00 0.00 33 1016.8
20260507142223 57 270 2.0 6.0 0.00 0.00 0.00 34 1016.8
20260507142214 57 270 2.0 6.0 0.00 0.00 0.00 34 1016.8
20260507140559 57 64 1.0 3.0 0.00 0.00 0.00 31 1016.6
20260507134734 57 73 1.0 3.0 0.00 0.00 0.00 30 1016.7
20260507132844 57 284 2.0 5.0 0.00 0.00 0.00 34 1016.6
20260507131059 58 135 1.0 4.0 0.00 0.00 0.00 32 1016.7
20260507125429 58 285 1.0 4.0 0.00 0.00 0.00 31 1016.7
20260507123617 58 240 3.0 9.0 0.00 0.00 0.00 31 1016.7
20260507121834 59 270 2.0 5.0 0.00 0.00 0.00 30 1016.6
20260507120224 59 135 1.0 3.0 0.00 0.00 0.00 31 1016.6
20260507114439 59 171 0.0 2.0 0.00 0.00 0.00 32 1016.7
20260507112749 59 146 0.0 3.0 0.00 0.00 0.00 32 1016.7
20260507111039 58 270 0.0 3.0 0.00 0.00 0.00 33 1016.9
20260507105228 57 225 1.0 3.0 0.00 0.00 0.00 33 1017.0
20260507105223 57 225 1.0 3.0 0.00 0.00 0.00 33 1017.0
20260507103519 56 225 1.0 4.0 0.00 0.00 0.00 35 1016.9
20260507101544 56 235 2.0 8.0 0.00 0.00 0.00 36 1016.9
20260507095644 55 232 2.0 10.0 0.00 0.00 0.00 37 1016.8
20260507093959 55 270 0.0 3.0 0.00 0.00 0.00 38 1016.9
20260507092244 54 214 1.0 3.0 0.00 0.00 0.00 39 1016.9
20260507090524 54 45 0.0 3.0 0.00 0.00 0.00 40 1017.0